Yuma MCAS, AZ

5:58 AM MST on April 22, 2018 (GMT -0700)
Yuma Marine Corps Air Station

Weather History for KNYL - November, 2012

Change the Weather History Date:

Monday, November 26, 2012

  Actual Average Record
Temperature  
Mean Temperature 68 °F 62 °F  
Max Temperature 81 °F 73 °F 90 °F (2017)
Min Temperature 54 °F 50 °F 32 °F (1931)
Degree Days  
Heating Degree Days 0 4  
Month to date heating degree days 22 46  
Since 1 July heating degree days 22 48  
Cooling Degree Days 3 1  
Month to date cooling degree days 115 85  
Year to date cooling degree days 4905 4647  
Growing Degree Days 18 (Base 50)    
Moisture  
Dew Point 49 °F    
Average Humidity 51    
Maximum Humidity 78    
Minimum Humidity 23    
Precipitation  
Precipitation 0.00 in 0.01 in 2.22 in (2008)
Month to date precipitation T 0.17  
Year to date precipitation 2.37 3.00  
Sea Level Pressure  
Sea Level Pressure 29.97 in    
Wind  
Wind Speed 1 mph (NE)    
Max Wind Speed 6 mph    
Max Gust Speed 8 mph    
Visibility 10 miles    
Events      
T = Trace of Precipitation, MM = Missing Value Source: NWS Daily Summary

Daily Weather History Graph

Daily Weather History Graph

Search for Another Location

Airport or City:

Astronomy

Nov. 26, 2012 Rise Set
Actual Time 7:18 AM MST 5:32 PM MST
Civil Twilight 6:52 AM MST 5:59 PM MST
Nautical Twilight 6:21 AM MST 6:29 PM MST
Astronomical Twilight 5:52 AM MST 6:59 PM MST
Moon 4:25 PM MST (11/26) 5:36 AM MST (11/26)
Length of Visible Light 11h 07m
Length of Day
10h 14m
Waxing Gibbous, 97% of the Moon is Illuminated
Nov 26
Waxing Gibbous
Nov 28
Full
Dec 6
Last Quarter
Dec 13
New
Dec 19
First Quarter

Hourly Weather History & Observations

Time (MST) Temp. Dew Point Humidity Pressure Visibility Wind Dir Wind Speed Gust Speed Precip Events Conditions
12:55 AM 60.1 °F 53.1 °F 78% 29.89 in 10.0 mi Calm Calm - N/A   Clear
1:55 AM 59.0 °F 51.1 °F 75% 29.89 in 10.0 mi Calm Calm - N/A   Clear
2:55 AM 59.0 °F 48.9 °F 69% 29.90 in 10.0 mi Calm Calm - N/A   Clear
3:55 AM 57.0 °F 48.0 °F 72% 29.91 in 10.0 mi Calm Calm - N/A   Clear
4:55 AM 55.9 °F 48.0 °F 75% 29.92 in 10.0 mi Calm Calm - N/A   Clear
5:55 AM 57.0 °F 45.0 °F 64% 29.93 in 10.0 mi Calm Calm - N/A   Clear
6:55 AM 55.9 °F 45.0 °F 67% 29.95 in 10.0 mi Calm Calm - N/A   Clear
7:55 AM 55.9 °F 46.9 °F 72% 29.98 in 10.0 mi Calm Calm - N/A   Partly Cloudy
8:55 AM 61.0 °F 48.0 °F 62% 29.99 in 10.0 mi ENE 3.5 mph - N/A   Partly Cloudy
9:55 AM 66.9 °F 52.0 °F 59% 30.01 in 10.0 mi ENE 4.6 mph - N/A   Partly Cloudy
10:55 AM 72.0 °F 54.0 °F 53% 30.02 in 10.0 mi Calm Calm - N/A   Partly Cloudy
11:55 AM 72.0 °F 53.1 °F 51% 30.01 in 10.0 mi East 3.5 mph - N/A   Partly Cloudy
12:55 PM 75.0 °F 51.1 °F 43% 29.99 in 10.0 mi Calm Calm - N/A   Partly Cloudy
1:55 PM 78.1 °F 50.0 °F 37% 29.97 in 10.0 mi Calm Calm - N/A   Partly Cloudy
2:55 PM 79.0 °F 46.0 °F 31% 29.96 in 10.0 mi Calm Calm - N/A   Partly Cloudy
3:55 PM 81.0 °F 39.9 °F 23% 29.95 in 10.0 mi Calm Calm - N/A   Partly Cloudy
4:55 PM 79.0 °F 39.9 °F 25% 29.96 in 10.0 mi South 3.5 mph - N/A   Scattered Clouds
5:55 PM 73.0 °F 50.0 °F 44% 29.97 in 10.0 mi West 3.5 mph - N/A   Scattered Clouds
6:55 PM 70.0 °F 53.1 °F 55% 29.99 in 10.0 mi West 4.6 mph - N/A   Scattered Clouds
7:55 PM 68.0 °F 53.1 °F 59% 30.00 in 10.0 mi Calm Calm - N/A   Scattered Clouds
8:55 PM 66.0 °F 51.1 °F 59% 30.02 in 10.0 mi Calm Calm - N/A   Scattered Clouds
9:55 PM 64.0 °F 50.0 °F 60% 30.03 in 10.0 mi Calm Calm - N/A   Scattered Clouds
10:55 PM 62.1 °F 48.0 °F 60% 30.04 in 10.0 mi Calm Calm - N/A   Scattered Clouds
11:55 PM 61.0 °F 48.0 °F 62% 30.05 in 10.0 mi North 3.5 mph - N/A   Scattered Clouds